Location: New Year Bore
(20.3667°S, 134.8500°E)
Time: 18:34:09
(UTC+00:00)

Daily predictions for brighter satellites

Satellite Brightness Start Highest point End
(mag) Time Altitude Azimuth Time Altitude Azimuth Time Altitude Azimuth
ADEOS 4.4 12:11:48 10° S 12:15:43 47° SSW 12:15:43 47° SSW
CZ-4C R/B 3.1 12:19:02 76° ENE 12:19:02 76° ENE 12:27:27 10° SSE
CZ-3 Stage 3 4.5 12:17:54 10° WNW 12:18:54 11° WNW 12:18:54 11° WNW
USA 234 3.7 12:23:50 52° SSE 12:23:50 52° SSE 12:29:32 10° SSW
Aurora 2 Rocket 4.5 12:45:59 10° W 12:55:49 73° S 12:56:22 72° SSE
Cosmos 2237 Rocket 4.3 13:09:39 10° SSW 13:11:49 23° SW 13:11:49 23° SW
USA 281 4.5 13:09:09 10° SSE 13:12:47 35° S 13:12:47 35° S
CZ-2D R/B 4.1 16:52:41 24° S 16:52:41 24° S 16:54:49 10° S
ATLAS 2A CENTAUR R/B 4.1 16:53:41 78° NNE 16:53:41 78° NNE 17:24:59 10° ESE
H-2A R/B 3.9 16:57:04 26° ESE 16:57:04 26° ESE 17:01:09 10° SSE
ADEOS Rocket 3.8 17:07:36 52° ENE 17:08:31 55° ESE 17:15:03 10° S
Cosmos 2369 Rocket 3.6 17:18:02 32° E 17:18:02 32° E 17:22:35 10° SE
H-2A R/B (2) 4.3 17:19:15 18° ENE 17:19:15 18° ENE 17:23:27 10° E
Cosmos 2278 Rocket 4.5 17:26:03 13° SW 17:26:03 13° SW 17:27:06 10° SSW
ACS3 Solar Sail 1.9 17:27:23 71° SE 17:27:23 71° SE 17:33:17 10° S
Yuri Rocket 4.2 17:34:37 49° SE 17:34:37 49° SE 17:39:21 10° ESE
Cosmos 2082 Rocket 3.9 17:29:16 10° S 17:34:15 30° ESE 17:39:10 10° NE
Resurs 1-4 Rocket 4.4 17:39:29 13° SW 17:39:29 13° SW 17:40:01 10° SW
Cosmos 2016 Rocket 4.1 17:36:58 66° SSW 17:36:58 66° SSW 17:42:12 10° S
ADEOS II 3.7 17:39:15 24° SSW 17:39:15 24° SSW 17:41:19 10° SSW
CENTAUR R/B 3.8 17:36:01 37° NNE 17:39:11 50° ENE 17:47:04 10° SE
Cosmos 540 Rocket 4.1 17:35:10 10° S 17:40:11 51° ESE 17:40:14 51° ESE
MOZ.5/SAFIR/RUBIN 5/SL-8 4.3 17:45:30 10° SSE 17:49:30 57° ESE 17:49:30 57° ESE
GPS 2-17 Rocket1 4.4 17:52:35 34° ENE 17:52:35 34° ENE 17:55:14 10° E
Cosmos 2297 3.6 17:54:09 74° NE 17:54:23 76° ENE 18:00:05 10° SSE
Lacrosse 4 Rocket 3.3 17:55:22 21° ENE 17:55:22 21° ENE 17:58:19 10° ESE
Cosmos 332 Rocket 4.5 17:56:57 46° ENE 17:57:14 47° E 18:01:50 10° SSE
Iridium 4 Rocket 3.5 18:00:08 81° W 18:00:09 81° W 18:05:57 10° S
GEOS 3 Rocket 4.5 17:56:56 10° SE 18:01:37 39° ENE 18:02:36 35° NE
SJ 16-02 3.8 18:13:05 11° SW 18:13:05 11° SW 18:13:15 10° SW
Ariane H10+ 3.9 18:11:15 22° NNE 18:11:27 22° NNE 18:17:59 10° ENE
Cosmos 2084 3.7 18:12:46 60° SSE 18:12:46 60° SSE 18:16:08 10° SSE
Cosmos 968 Rocket 3.3 18:13:33 71° W 18:13:47 73° WSW 18:18:56 10° S
Cosmos 2061 Rocket 4.2 18:20:17 47° WNW 18:21:18 51° W 18:27:34 10° S
Cosmos 1975 Rocket 2.9 18:17:24 10° S 18:21:45 85° E 18:22:21 65° NNE
Cosmos 1741 Rocket 3.9 18:24:39 52° NNW 18:25:56 82° WSW 18:31:11 10° SSE
ASTEX 1 3.5 18:22:11 10° S 18:26:58 52° W 18:27:16 51° W
H-2A R/B 4.1 18:23:41 10° SSW 18:25:32 20° SW 18:25:32 20° SW
Cosmos 2233 Rocket 4.5 18:26:43 37° W 18:27:08 38° W 18:32:48 10° SSW
Cosmos 468 Rocket 3.9 18:24:50 10° SSW 18:30:09 79° WNW 18:34:15 17° N
Aurora 2 Rocket 4.0 18:32:22 37° NW 18:33:17 39° NNW 18:38:43 10° NE
Okean 1 Rocket 4.0 18:31:54 16° NNE 18:35:07 45° E 18:39:23 10° SSE
H-2A R/B 3.6 18:37:34 20° WSW 18:37:34 20° WSW 18:40:02 10° SW
USA 267 3.7 18:29:48 10° NE 18:36:14 64° SE 18:42:42 10° SSW
Okean 2 Rocket 3.5 18:34:24 23° NNE 18:37:04 63° E 18:41:33 10° SSE
Lacrosse 5 rocket 2.8 18:40:01 18° SW 18:40:01 18° SW 18:41:50 10° S
Cosmos 1891 Rocket 4.4 18:39:27 26° NNW 18:42:58 70° W 18:49:05 10° S
H-2A R/B 3.7 18:41:52 10° NNE 18:45:40 62° ESE 18:49:31 10° S
Tsikada Rocket 4.2 18:42:45 10° SSW 18:48:53 54° W 18:54:02 15° NNW
Cosmos 1862 4.3 18:49:34 10° SSE 18:53:01 42° E 18:56:26 10° NNE
CZ-2C R/B 2.5 18:52:41 20° NNW 18:55:48 48° W 19:00:20 10° SSW
Cosmos 2058 2.7 18:56:16 10° S 19:00:13 86° E 19:04:09 10° N
Cosmos 2369 Rocket 3.6 18:59:49 19° W 19:01:27 21° WSW 19:05:42 10° SSW
COSMOS 2406 3.1 18:57:03 10° SSW 19:02:46 75° WNW 19:08:25 10° N
ISS 0.0 19:02:34 10° SSE 19:03:31 11° SE 19:04:27 10° ESE
Cosmos 1346 Rocket 4.3 19:07:04 10° SSE 19:10:30 36° E 19:13:54 10° NNE
Cosmos 1464 Rocket 4.0 19:04:31 10° NNW 19:10:43 68° W 19:17:04 10° S
ARGOS 4.1 19:09:10 19° NW 19:11:31 26° W 19:15:55 10° SW
ATLAS 2A CENTAUR R/B -0.1 19:14:04 66° WSW 19:14:13 76° SSW 19:15:58 10° ESE
Cosmos 2082 Rocket 3.3 19:13:42 10° SW 19:18:00 22° WNW 19:22:17 10° NNW
SWIFT 1.7 19:18:42 16° W 19:21:18 73° N 19:24:43 10° ENE
Cosmos 1536 Rocket 3.5 19:20:09 10° S 19:24:36 76° W 19:29:01 10° N
CENTAUR R/B 4.1 19:23:10 13° WNW 19:29:52 31° WSW 19:36:41 10° S
SL-24 R/B 4.4 19:28:25 10° NNE 19:32:27 62° ESE 19:36:11 10° S
Cosmos 1455 Rocket 3.0 19:28:26 10° N 19:32:50 72° W 19:37:15 10° S
Lacrosse 4 Rocket 3.1 19:30:53 11° W 19:32:58 16° WSW 19:35:25 10° SSW
GPS 2-17 Rocket1 3.4 19:28:50 10° W 19:33:12 46° NNW 19:37:35 10° ENE
FALCON 9 R/B 3.5 19:26:57 10° W 19:36:00 32° SSW 19:39:44 10° SSE
Cosmos 2034 Rocket 4.1 19:32:03 10° NNW 19:38:13 61° W 19:44:24 10° S
Hubble Space Telescope 3.0 19:38:28 10° N 19:40:25 14° NNE 19:42:22 10° ENE
EPKM 3.0 19:39:34 10° NW 19:41:21 35° NNE 19:45:13 10° E
Cosmos 841 Rocket 4.4 19:39:36 10° SW 19:43:57 28° W 19:48:18 10° NNW
Meteor 1-27 4.3 19:40:37 10° N 19:46:11 89° WSW 19:51:48 10° S
USA 306 2.4 19:42:37 10° NW 19:46:34 80° SW 19:49:58 10° SSE
Nadezhda 4 Rocket 4.0 19:43:05 10° S 19:49:24 72° W 19:55:41 10° N
ATLAS 2AS CENTAUR R/B 3.1 19:45:16 10° SSW 19:52:43 83° ESE 19:59:59 10° NNE
